Regional Weather Roundup
Issued by NWS

Home | Current Version | Previous Version | Text Only | Print | Product List | Glossary Off
Versions: 1 2 3 4 5 6 7 8 9 10 11 12 13 14 15 16 17 18 19 20 21 22 23 24 25 26 27 28 29 30 31 32 33 34 35 36 37 38 39 40 41 42 43 44 45 46 47 48 49 50

000
ASUS43 KDTX 050401
RWRMI
MICHIGAN HOURLY REGIONAL WEATHER ROUNDUP
NATIONAL WEATHER SERVICE DETROIT/PONTIAC MI
1200 AM EDT TUE MAY 05 2015

NOTE: "FAIR" INDICATES FEW OR NO CLOUDS BELOW 12,000 FEET WITH NO
SIGNIFICANT WEATHER AND/OR OBSTRUCTION TO VISIBILITY.

MIZ047>049-052>055-059>063-066>070-074>076-081>083-050500-
SOUTHEAST LOWER MICHIGAN

CITY           SKY/WX    TMP DP  RH WIND       PRES   REMARKS
ADRIAN         MOCLDY    62  59  90 W5        30.19S
ALMA           MOCLDY    58  37  44 N7        30.22R
ANN ARBOR      MOCLDY    60  56  86 SW3       30.18R
BAD AXE        PTCLDY    50  35  55 CALM      30.23R
CARO           FAIR      55  45  68 E3        30.21S
DETROIT CITY   MOCLDY    61  57  87 NE5       30.18R
DETROIT        MOCLDY    66  60  81 S3        30.18R
FLINT          CLOUDY    64  49  57 E17       30.20R
GROSSE ILE     MOCLDY    64  61  88 CALM      30.16S
HILLSDALE      MOCLDY    58  56  92 CALM      30.20S
HOWELL         PTCLDY    62  55  77 N3        30.19R

CITY           SKY/WX    TMP DP  RH WIND       PRES   REMARKS
JACKSON        PTCLDY    58  54  86 SW5       30.19S
LAMBERTVILLE   CLOUDY    64  61  88 W3        30.19S
LANSING        PTCLDY    61  39  44 N6        30.21R
LAPEER         FAIR      57  42  56 E6        30.22R
MASON          PTCLDY    61  52  71 NW5       30.19S
MONROE         CLOUDY    63  61  94 SW5       30.16S
PONTIAC        CLOUDY    64  54  69 E6        30.18S
PORT HOPE        N/A     47  36  65 VRB6      30.21R
PORT HURON     MOCLDY    50  45  81 NE5       30.22S
TRI CITIES     MOCLDY    56  46  69 NE7       30.23R
MIDLAND        MOCLDY    56  40  56 CALM      30.22R
TROY           MOCLDY    65  55  67 NE7       30.20S
SAGINAW HB     PTCLDY    54  45  71 N6        30.22R
$$
MIZ043>046-050>051-056>058-064>065-071>073-077>080-050500-
SOUTHWEST LOWER MICHIGAN

CITY           SKY/WX    TMP DP  RH WIND       PRES   REMARKS
BATTLE CREEK   CLEAR     60  54  80 S3        30.20S
BENTON HARBOR  PTCLDY    51  49  92 CALM      30.18S
BIG RAPIDS     MOCLDY    54  32  43 CALM      30.23R
COLDWATER      PTCLDY    58  53  85 CALM      30.19S
FREMONT        FAIR      56  29  35 NE6       30.21S
HOLLAND        PTCLDY    50  44  80 CALM      30.20S
GRAND RAPIDS   PTCLDY    59  39  47 NE9       30.20S
IONIA          FAIR      60  37  43 NE12      30.21R
KALAMAZOO      CLEAR     61  54  77 N3        30.19F
LUDINGTON      MOCLDY    56  33  42 NE5       30.23S
MARSHALL       PTCLDY    57  53  85 CALM      30.19S
MOUNT PLEASANT PTCLDY    54  38  54 CALM      30.23R
MUSKEGON       PTCLDY    60  36  40 NE7       30.20S
SOUTH HAVEN    PTCLDY    51  47  87 CALM      30.19S
$$
MIZ016>042-050500-
NORTHERN LOWER MICHIGAN

CITY           SKY/WX    TMP DP  RH WIND       PRES   REMARKS
ALPENA         PTCLDY    48  36  63 NW8       30.25R
BEAVER ISLAND  PTCLDY    37  35  90 CALM      30.26S
BELLAIRE       MOCLDY    42  39  89 CALM      30.26S
CADILLAC       PTCLDY    47  34  59 NE3       30.23S
CHARLEVOIX     MOCLDY    45  35  67 CALM      30.29S
FRANKFORT      MOCLDY    55  30  37 E6        30.24R
GAYLORD        MOCLDY    46  33  60 CALM      30.25
GRAYLING       PTCLDY    45  33  62 CALM      30.25S
HARBOR SPRINGS MOCLDY    40  34  79 CALM      30.26S
HOUGHTON LAKE  PTCLDY    49  36  61 N6        30.23F
MANISTEE       MOCLDY    50  34  53 E8        30.24S
OSCODA         PTCLDY    47  38  69 N3        30.21S
PELLSTON       MOCLDY    38  33  82 NW3       30.27R
ROGERS CITY    PTCLDY    47  37  70 NW5       30.26S
TRAVERSE CITY  MOCLDY    42  37  82 CALM      30.25R
$$
MIZ007>008-015-050500-
EASTERN UPPER MICHIGAN

CITY           SKY/WX    TMP DP  RH WIND       PRES   REMARKS
KINROSS        PTCLDY    39  37  93 NW6       30.25R WCI  35
MACKINAC ISLAN PTCLDY    44  36  72 W5        30.25S
NEWBERRY       CLEAR     46  36  69 W12G18    30.25S
S. S. MARIE    CLEAR     45  35  68 NW8       30.24R
MUNISING         N/A     40  34  79 S6        30.25S
$$
MIZ004>006-011>014-085-050500-
CENTRAL UPPER MICHIGAN

CITY           SKY/WX    TMP DP  RH WIND       PRES   REMARKS
MANISTIQUE     PTCLDY    42  33  71 N6        30.25R
ESCANABA       PTCLDY    48  32  53 N5        30.26R
MENOMINEE      MOCLDY    46  36  66 E5        30.27R
SAWYER-GWINN   CLEAR     43  34  68 CALM      30.26R
$$
MIZ001>003-009>011-084-050500-
WESTERN UPPER MICHIGAN

CITY           SKY/WX    TMP DP  RH WIND       PRES   REMARKS
IRON MOUNTAIN  PTCLDY    47  37  68 CALM      30.25R
HOUGHTON       CLEAR     41  33  73 NW5       30.23S
COPPER HARBOR    N/A     43  36  76 NW3       30.24R
IRONWOOD       CLEAR     39  32  75 CALM      30.22S
$$

ABBREVIATIONS USED IN REMARKS
   TC - TEMPERATURE IN CELSIUS
  WCI - WIND CHILL INDEX
   HX - HEAT INDEX
  VSB - VISIBILITY




USA.gov is the U.S. government's official web portal to all federal, state and local government web resources and services.